WMT1489 LRCL-LPPT

Flight info

Callsign WMT1489
Flight time 4h 12m
Altitude 36000
Route ELROM DCT BAVMA DCT LUVEL DCT KOPRY DCT ZARVE DCT BARPI/N0449F370 DCT BADOP DCT GEKBA DCT VAMTU DCT KOLON DCT GANGU DCT PADKO DCT DIVKO DCT NILDU DCT NENDA DCT BCN DCT ANTON DCT XIKEN DCT OSLAP DCT SALAS DCT RAMON DCT NEXAS DCT DISVU DCT ADUXO DCT CJN DCT PALIO DCT AKOKI DCT GOTOR DCT TLD DCT NATPA DCT MELON DCT CCS DCT ELVAR DCT UPULO
Aircraft A320/M-SDE1E2E3FGIJ1J4RWXY/LB1

Departure

Time 2026-05-07 12:52
Airport Avram Iancu Cluj International Airport (LRCL)

Arrival

Time 2026-05-07 17:04
Airport Lisbon Humberto Delgado Airport (LPPT)
Time Latitude Longitude Altitude Speed Heading
2026-05-07 12:33 46.78577 23.69413 1043 ft 0 kts 71°
2026-05-07 12:41 46.78577 23.69412 1070 ft 1 kts 71°
2026-05-07 12:41 46.78569 23.69378 1043 ft 4 kts 72°
2026-05-07 12:41 46.78561 23.69348 1043 ft 4 kts 45°
2026-05-07 12:41 46.78550 23.69338 1043 ft 4 kts 355°
2026-05-07 12:42 46.78526 23.69348 1043 ft 2 kts 341°
2026-05-07 12:42 46.78524 23.69349 1043 ft 0 kts 342°
2026-05-07 12:45 46.78532 23.69345 1043 ft 2 kts 342°
2026-05-07 12:45 46.78551 23.69336 1043 ft 4 kts 342°
2026-05-07 12:46 46.78581 23.69322 1043 ft 5 kts 342°
2026-05-07 12:46 46.78620 23.69303 1043 ft 7 kts 341°
2026-05-07 12:46 46.78661 23.69283 1043 ft 7 kts 342°
2026-05-07 12:46 46.78709 23.69260 1043 ft 8 kts 342°
2026-05-07 12:47 46.78740 23.69199 1043 ft 9 kts 269°
2026-05-07 12:47 46.78722 23.69106 1043 ft 10 kts 251°
2026-05-07 12:47 46.78697 23.68997 1043 ft 12 kts 251°
2026-05-07 12:47 46.78668 23.68870 1043 ft 14 kts 251°
2026-05-07 12:48 46.78636 23.68728 1043 ft 16 kts 252°
2026-05-07 12:48 46.78601 23.68571 1043 ft 17 kts 252°
2026-05-07 12:48 46.78562 23.68401 1043 ft 18 kts 251°
2026-05-07 12:48 46.78522 23.68220 1043 ft 20 kts 252°
2026-05-07 12:49 46.78478 23.68026 1043 ft 21 kts 252°
2026-05-07 12:49 46.78432 23.67823 1043 ft 22 kts 252°
2026-05-07 12:49 46.78384 23.67611 1043 ft 22 kts 252°
2026-05-07 12:49 46.78350 23.67416 1043 ft 10 kts 258°
2026-05-07 12:50 46.78343 23.67366 1043 ft 5 kts 258°
2026-05-07 12:50 46.78343 23.67309 1043 ft 6 kts 281°
2026-05-07 12:50 46.78366 23.67245 1042 ft 8 kts 309°
2026-05-07 12:50 46.78413 23.67191 1042 ft 9 kts 337°
2026-05-07 12:51 46.78474 23.67218 1043 ft 10 kts 52°
2026-05-07 12:51 46.78500 23.67320 1043 ft 12 kts 72°
2026-05-07 12:51 46.78560 23.67589 1043 ft 56 kts 72°
2026-05-07 12:51 46.78757 23.68465 1043 ft 127 kts 72°
2026-05-07 12:52 46.79098 23.69949 1177 ft 171 kts 73°
2026-05-07 12:52 46.79474 23.71580 1981 ft 168 kts 72°
2026-05-07 12:52 46.79844 23.73164 2675 ft 163 kts 72°
2026-05-07 12:52 46.80236 23.74811 2954 ft 180 kts 72°
2026-05-07 12:53 46.80648 23.76655 3127 ft 203 kts 74°
2026-05-07 12:53 46.81098 23.78740 3338 ft 227 kts 74°
2026-05-07 12:53 46.81594 23.81030 3603 ft 252 kts 73°
2026-05-07 12:53 46.82159 23.83572 4050 ft 272 kts 70°
2026-05-07 12:54 46.83150 23.85961 4788 ft 281 kts 47°
2026-05-07 12:54 46.84748 23.87635 5581 ft 288 kts 23°
2026-05-07 12:54 46.86708 23.88251 6382 ft 292 kts 358°
2026-05-07 12:54 46.88693 23.87649 7142 ft 294 kts 333°
2026-05-07 12:55 46.90441 23.86083 7946 ft 295 kts 323°
2026-05-07 12:55 46.92150 23.84384 8765 ft 299 kts 322°
2026-05-07 12:55 46.93880 23.82656 9575 ft 303 kts 322°
2026-05-07 12:55 46.95633 23.80901 10247 ft 312 kts 322°
2026-05-07 12:56 46.97407 23.78904 10485 ft 331 kts 310°
2026-05-07 12:56 46.98734 23.76129 10962 ft 336 kts 291°
2026-05-07 12:56 46.99385 23.72862 11658 ft 334 kts 272°
2026-05-07 12:56 46.99292 23.69486 12399 ft 332 kts 254°
2026-05-07 12:57 46.98467 23.66356 13148 ft 331 kts 236°
2026-05-07 12:57 46.97050 23.63698 13945 ft 333 kts 227°
2026-05-07 12:57 46.95518 23.61132 14675 ft 336 kts 227°
2026-05-07 12:57 46.93974 23.58544 15350 ft 339 kts 227°
2026-05-07 12:58 46.92414 23.55924 16015 ft 343 kts 227°
2026-05-07 12:58 46.90842 23.53280 16655 ft 346 kts 227°
2026-05-07 12:58 46.89250 23.50606 17300 ft 350 kts 227°
2026-05-07 12:58 46.87644 23.47917 17967 ft 353 kts 227°
2026-05-07 12:59 46.86043 23.45237 18566 ft 356 kts 227°
2026-05-07 12:59 46.84408 23.42503 19148 ft 359 kts 228°
2026-05-07 12:59 46.82737 23.39707 19758 ft 362 kts 228°
2026-05-07 12:59 46.81091 23.36953 20403 ft 365 kts 228°
2026-05-07 13:00 46.79569 23.33974 21007 ft 368 kts 238°
2026-05-07 13:00 46.78471 23.30579 21618 ft 372 kts 250°
2026-05-07 13:00 46.77821 23.26897 22212 ft 376 kts 256°
2026-05-07 13:00 46.77266 23.23165 22815 ft 378 kts 256°
2026-05-07 13:01 46.76698 23.19407 23447 ft 380 kts 256°
2026-05-07 13:01 46.76121 23.15636 23984 ft 382 kts 256°
2026-05-07 13:01 46.75532 23.11833 24506 ft 384 kts 256°
2026-05-07 13:01 46.74939 23.08023 25030 ft 387 kts 256°
2026-05-07 13:02 46.74411 23.04164 25551 ft 390 kts 261°
2026-05-07 13:02 46.74310 23.00196 26068 ft 394 kts 271°
2026-05-07 13:02 46.74493 22.96204 26570 ft 397 kts 271°
2026-05-07 13:02 46.74676 22.92231 27088 ft 399 kts 271°
2026-05-07 13:03 46.74861 22.88180 27586 ft 401 kts 271°
2026-05-07 13:03 46.75044 22.84111 28069 ft 404 kts 270°
2026-05-07 13:03 46.75222 22.80005 28545 ft 406 kts 270°
2026-05-07 13:03 46.75397 22.75879 29025 ft 409 kts 270°
2026-05-07 13:04 46.75461 22.74376 29196 ft 409 kts 270°
2026-05-07 13:04 46.75530 22.72752 29386 ft 410 kts 270°
2026-05-07 13:04 46.75707 22.68592 29824 ft 413 kts 270°
2026-05-07 13:04 46.75882 22.64401 30228 ft 415 kts 270°
2026-05-07 13:05 46.76057 22.60196 30690 ft 414 kts 270°
2026-05-07 13:05 46.76233 22.56005 31198 ft 412 kts 270°
2026-05-07 13:05 46.76403 22.51832 31683 ft 411 kts 270°
2026-05-07 13:05 46.76570 22.47667 32193 ft 410 kts 270°
2026-05-07 13:06 46.76735 22.43523 32702 ft 409 kts 270°
2026-05-07 13:06 46.76900 22.39380 33205 ft 407 kts 270°
2026-05-07 13:06 46.77062 22.35265 33701 ft 406 kts 270°
2026-05-07 13:06 46.77219 22.31203 34167 ft 405 kts 270°
2026-05-07 13:07 46.77376 22.27095 34573 ft 404 kts 270°
2026-05-07 13:07 46.77532 22.22999 34969 ft 403 kts 270°
2026-05-07 13:07 46.77688 22.18916 35348 ft 403 kts 270°
2026-05-07 13:07 46.77845 22.14830 35716 ft 403 kts 270°
2026-05-07 13:08 46.77999 22.10747 35986 ft 404 kts 270°
2026-05-07 13:08 46.78148 22.06689 36051 ft 405 kts 269°
2026-05-07 13:08 46.78179 21.98418 36041 ft 411 kts 265°
2026-05-07 13:09 46.77945 21.90073 36040 ft 412 kts 264°
2026-05-07 13:09 46.77705 21.81717 36044 ft 412 kts 265°
2026-05-07 13:10 46.77524 21.73352 36036 ft 412 kts 265°
2026-05-07 13:10 46.77369 21.65088 36035 ft 412 kts 265°
2026-05-07 13:11 46.77196 21.56661 36061 ft 415 kts 265°
2026-05-07 13:11 46.77013 21.48256 36062 ft 414 kts 265°
2026-05-07 13:12 46.76819 21.39866 36049 ft 413 kts 264°
2026-05-07 13:12 46.76466 21.31526 36051 ft 409 kts 258°
2026-05-07 13:13 46.75634 21.23312 36035 ft 409 kts 258°
2026-05-07 13:13 46.74802 21.15158 36053 ft 409 kts 258°
2026-05-07 13:14 46.73963 21.06954 36044 ft 409 kts 258°
2026-05-07 13:14 46.73119 20.98758 36039 ft 408 kts 258°
2026-05-07 13:15 46.72273 20.90566 36032 ft 408 kts 258°
2026-05-07 13:15 46.71416 20.82375 36033 ft 408 kts 258°
2026-05-07 13:16 46.70552 20.74207 36034 ft 408 kts 258°
2026-05-07 13:16 46.69689 20.66092 36049 ft 407 kts 257°
2026-05-07 13:17 46.68821 20.57950 36040 ft 406 kts 257°
2026-05-07 13:17 46.67946 20.49811 36039 ft 406 kts 257°
2026-05-07 13:18 46.67069 20.41677 36036 ft 406 kts 257°
2026-05-07 13:18 46.66181 20.33572 36036 ft 405 kts 257°
2026-05-07 13:19 46.65293 20.25497 36033 ft 405 kts 257°
2026-05-07 13:19 46.64393 20.17372 36032 ft 406 kts 257°
2026-05-07 13:20 46.63501 20.09304 36021 ft 405 kts 257°
2026-05-07 13:20 46.62600 20.01204 36022 ft 405 kts 257°
2026-05-07 13:21 46.61682 19.93094 36015 ft 405 kts 257°
2026-05-07 13:21 46.60767 19.85055 36017 ft 405 kts 257°
2026-05-07 13:22 46.59841 19.76952 36038 ft 405 kts 257°
2026-05-07 13:22 46.58906 19.68864 36031 ft 405 kts 257°
2026-05-07 13:23 46.57975 19.60787 36029 ft 405 kts 257°
2026-05-07 13:23 46.57043 19.52717 36023 ft 404 kts 257°
2026-05-07 13:24 46.56259 19.46026 36023 ft 404 kts 257°
2026-05-07 13:24 46.55153 19.36683 36020 ft 404 kts 257°
2026-05-07 13:25 46.54353 19.29951 36043 ft 403 kts 256°
2026-05-07 13:25 46.53402 19.21978 36036 ft 403 kts 256°
2026-05-07 13:26 46.52434 19.13918 36032 ft 402 kts 256°
2026-05-07 13:26 46.51474 19.05971 36026 ft 401 kts 256°
2026-05-07 13:27 46.50507 18.97984 36022 ft 401 kts 256°
2026-05-07 13:27 46.49529 18.89994 36019 ft 401 kts 256°
2026-05-07 13:28 46.48553 18.82076 36046 ft 401 kts 256°
2026-05-07 13:28 46.47568 18.74109 36038 ft 401 kts 256°
2026-05-07 13:29 46.46577 18.66147 36030 ft 401 kts 256°
2026-05-07 13:29 46.45581 18.58182 36027 ft 400 kts 256°
2026-05-07 13:30 46.44590 18.50279 36032 ft 400 kts 256°
2026-05-07 13:30 46.43586 18.42332 36033 ft 401 kts 256°
2026-05-07 13:31 46.42568 18.34384 36054 ft 400 kts 256°
2026-05-07 13:31 46.41549 18.26464 36047 ft 400 kts 256°
2026-05-07 13:32 46.40529 18.18549 36040 ft 399 kts 256°
2026-05-07 13:32 46.39505 18.10644 36035 ft 398 kts 256°
2026-05-07 13:33 46.38485 18.02798 36037 ft 398 kts 256°
2026-05-07 13:33 46.37452 17.94907 36030 ft 398 kts 256°
2026-05-07 13:34 46.35890 17.83074 36049 ft 398 kts 255°
2026-05-07 13:35 46.34847 17.75261 36038 ft 397 kts 255°
2026-05-07 13:35 46.33805 17.67404 36042 ft 397 kts 255°
2026-05-07 13:36 46.32750 17.59555 36033 ft 397 kts 255°
2026-05-07 13:36 46.31685 17.51700 36029 ft 397 kts 255°
2026-05-07 13:37 46.30625 17.43899 36048 ft 397 kts 255°
2026-05-07 13:37 46.29553 17.36061 36040 ft 397 kts 255°
2026-05-07 13:38 46.28477 17.28227 36033 ft 397 kts 255°
2026-05-07 13:38 46.27394 17.20398 36031 ft 397 kts 255°
2026-05-07 13:39 46.26310 17.12579 36022 ft 396 kts 255°
2026-05-07 13:39 46.25217 17.04771 36027 ft 396 kts 255°
2026-05-07 13:40 46.24122 16.96975 36049 ft 396 kts 255°
2026-05-07 13:40 46.22931 16.89228 36038 ft 394 kts 253°
2026-05-07 13:41 46.21639 16.81522 36029 ft 394 kts 253°
2026-05-07 13:41 46.20351 16.73835 36025 ft 394 kts 253°
2026-05-07 13:42 46.19083 16.66179 36024 ft 394 kts 253°
2026-05-07 13:42 46.17808 16.58475 36017 ft 394 kts 253°
2026-05-07 13:43 46.16531 16.50783 36036 ft 394 kts 253°
2026-05-07 13:43 46.15251 16.43100 36028 ft 393 kts 253°
2026-05-07 13:44 46.13969 16.35476 36020 ft 393 kts 253°
2026-05-07 13:44 46.12672 16.27811 36021 ft 393 kts 253°
2026-05-07 13:45 46.11376 16.20186 36014 ft 393 kts 253°
2026-05-07 13:45 46.10067 16.12518 36013 ft 393 kts 253°
2026-05-07 13:46 46.08754 16.04865 36025 ft 393 kts 253°
2026-05-07 13:46 46.07450 15.97265 36015 ft 392 kts 253°
2026-05-07 13:47 46.06133 15.89625 35985 ft 393 kts 253°
2026-05-07 13:47 46.04811 15.82003 36007 ft 392 kts 253°
2026-05-07 13:48 46.03488 15.74387 36013 ft 392 kts 253°
2026-05-07 13:48 46.02158 15.66777 36013 ft 392 kts 253°
2026-05-07 13:49 46.00821 15.59176 36018 ft 392 kts 253°
2026-05-07 13:49 45.99479 15.51580 36018 ft 391 kts 253°
2026-05-07 13:50 45.98139 15.44021 36017 ft 392 kts 253°
2026-05-07 13:50 45.96793 15.36430 36014 ft 391 kts 253°
2026-05-07 13:51 45.95447 15.28893 36009 ft 391 kts 253°
2026-05-07 13:51 45.94090 15.21301 35983 ft 391 kts 253°
2026-05-07 13:52 45.92730 15.13735 36003 ft 391 kts 253°
2026-05-07 13:52 45.91357 15.06156 35979 ft 392 kts 253°
2026-05-07 13:53 45.89985 14.98616 35974 ft 392 kts 253°
2026-05-07 13:53 45.88564 14.91030 35975 ft 392 kts 252°
2026-05-07 13:54 45.86990 14.83516 35982 ft 392 kts 251°
2026-05-07 13:54 45.85385 14.76077 35971 ft 392 kts 251°
2026-05-07 13:55 45.83790 14.68571 36009 ft 393 kts 251°
2026-05-07 13:55 45.82590 14.62873 35996 ft 392 kts 251°
2026-05-07 13:56 45.81006 14.55386 35993 ft 392 kts 251°
2026-05-07 13:56 45.79415 14.47908 36000 ft 392 kts 251°
2026-05-07 13:57 45.78284 14.42619 36004 ft 392 kts 251°
2026-05-07 13:57 45.76698 14.35180 36002 ft 392 kts 251°
2026-05-07 13:58 45.75099 14.27724 36009 ft 392 kts 251°
2026-05-07 13:58 45.73493 14.20262 36022 ft 392 kts 251°
2026-05-07 13:59 45.71879 14.12790 36012 ft 392 kts 251°
2026-05-07 13:59 45.70270 14.05389 36008 ft 392 kts 251°
2026-05-07 14:00 45.68650 13.97923 35998 ft 392 kts 251°
2026-05-07 14:00 45.67025 13.90481 36007 ft 391 kts 251°
2026-05-07 14:01 45.65401 13.83095 36009 ft 391 kts 251°
2026-05-07 14:01 45.63762 13.75672 36036 ft 391 kts 251°
2026-05-07 14:02 45.62115 13.68242 36024 ft 391 kts 251°
2026-05-07 14:02 45.60479 13.60828 36022 ft 391 kts 251°
2026-05-07 14:03 45.58832 13.53421 36017 ft 392 kts 251°
2026-05-07 14:03 45.57150 13.46080 36015 ft 392 kts 250°
2026-05-07 14:04 45.55390 13.38722 36003 ft 391 kts 250°
2026-05-07 14:04 45.53634 13.31390 36024 ft 391 kts 251°
2026-05-07 14:05 45.51886 13.24045 36015 ft 391 kts 251°
2026-05-07 14:05 45.50134 13.16706 36004 ft 390 kts 250°
2026-05-07 14:06 45.48379 13.09419 36001 ft 390 kts 250°
2026-05-07 14:06 45.46615 13.02085 36000 ft 390 kts 251°
2026-05-07 14:07 45.44963 12.94749 35996 ft 391 kts 253°
2026-05-07 14:07 45.43507 12.87297 35995 ft 391 kts 254°
2026-05-07 14:08 45.42060 12.79841 35991 ft 390 kts 253°
2026-05-07 14:08 45.40572 12.72433 35992 ft 389 kts 253°
2026-05-07 14:09 45.39063 12.65048 35989 ft 388 kts 253°
2026-05-07 14:09 45.37548 12.57714 35989 ft 388 kts 253°
2026-05-07 14:10 45.36024 12.50345 35990 ft 388 kts 253°
2026-05-07 14:10 45.34507 12.42973 35999 ft 388 kts 253°
2026-05-07 14:11 45.32979 12.35585 35986 ft 389 kts 253°
2026-05-07 14:11 45.31707 12.29444 35983 ft 390 kts 253°
2026-05-07 14:12 45.29912 12.20867 35967 ft 389 kts 253°
2026-05-07 14:12 45.28625 12.14729 35979 ft 389 kts 253°
2026-05-07 14:13 45.27076 12.07362 35984 ft 389 kts 253°
2026-05-07 14:13 45.25530 12.00028 36007 ft 389 kts 253°
2026-05-07 14:14 45.23972 11.92670 35992 ft 389 kts 253°
2026-05-07 14:14 45.22414 11.85309 35989 ft 389 kts 253°
2026-05-07 14:15 45.20851 11.77963 35984 ft 389 kts 253°
2026-05-07 14:15 45.19274 11.70594 35982 ft 390 kts 253°
2026-05-07 14:16 45.17704 11.63287 35953 ft 390 kts 253°
2026-05-07 14:16 45.16121 11.55934 35985 ft 389 kts 253°
2026-05-07 14:17 45.14536 11.48588 35984 ft 389 kts 253°
2026-05-07 14:17 45.12952 11.41269 35984 ft 389 kts 253°
2026-05-07 14:18 45.11373 11.33987 35983 ft 389 kts 253°
2026-05-07 14:18 45.09771 11.26676 35985 ft 389 kts 253°
2026-05-07 14:19 45.08164 11.19365 36014 ft 389 kts 253°
2026-05-07 14:19 45.06558 11.12065 36017 ft 388 kts 253°
2026-05-07 14:20 45.04950 11.04770 36011 ft 388 kts 253°
2026-05-07 14:20 45.03338 10.97479 35992 ft 388 kts 252°
2026-05-07 14:21 45.01722 10.90241 35991 ft 388 kts 252°
2026-05-07 14:21 45.00097 10.82956 35991 ft 388 kts 252°
2026-05-07 14:22 44.98479 10.75683 35971 ft 388 kts 252°
2026-05-07 14:22 44.96846 10.68406 35992 ft 388 kts 252°
2026-05-07 14:23 44.95214 10.61166 35987 ft 388 kts 252°
2026-05-07 14:23 44.93578 10.53939 35983 ft 388 kts 252°
2026-05-07 14:24 44.91934 10.46678 35983 ft 388 kts 252°
2026-05-07 14:24 44.90287 10.39413 35957 ft 388 kts 252°
2026-05-07 14:25 44.88640 10.32218 35985 ft 387 kts 252°
2026-05-07 14:25 44.86977 10.24973 35992 ft 387 kts 252°
2026-05-07 14:26 44.85320 10.17738 35990 ft 387 kts 252°
2026-05-07 14:26 44.83665 10.10553 35988 ft 387 kts 252°
2026-05-07 14:27 44.81996 10.03339 35988 ft 387 kts 252°
2026-05-07 14:27 44.80323 9.96124 35986 ft 387 kts 252°
2026-05-07 14:28 44.78635 9.88919 35987 ft 387 kts 252°
2026-05-07 14:28 44.76947 9.81706 35982 ft 387 kts 252°
2026-05-07 14:29 44.75264 9.74528 35974 ft 388 kts 252°
2026-05-07 14:29 44.73570 9.67311 35986 ft 388 kts 252°
2026-05-07 14:30 44.71867 9.60089 35988 ft 389 kts 251°
2026-05-07 14:30 44.70154 9.52875 35993 ft 389 kts 252°
2026-05-07 14:31 44.68448 9.45699 36013 ft 389 kts 251°
2026-05-07 14:31 44.66735 9.38484 36009 ft 389 kts 251°
2026-05-07 14:32 44.65012 9.31269 36003 ft 390 kts 251°
2026-05-07 14:32 44.63290 9.24093 36003 ft 389 kts 251°
2026-05-07 14:33 44.61548 9.16862 35991 ft 390 kts 251°
2026-05-07 14:33 44.59818 9.09688 36002 ft 389 kts 251°
2026-05-07 14:34 44.58076 9.02488 36023 ft 390 kts 251°
2026-05-07 14:34 44.56324 8.95279 36025 ft 390 kts 251°
2026-05-07 14:35 44.54575 8.88106 36037 ft 390 kts 251°
2026-05-07 14:35 44.52806 8.80875 36039 ft 391 kts 251°
2026-05-07 14:36 44.51049 8.73715 36041 ft 391 kts 251°
2026-05-07 14:36 44.49278 8.66496 36040 ft 390 kts 251°
2026-05-07 14:37 44.47514 8.59343 36028 ft 391 kts 251°
2026-05-07 14:37 44.44838 8.48540 36021 ft 391 kts 251°
2026-05-07 14:38 44.43047 8.41345 36008 ft 391 kts 251°
2026-05-07 14:38 44.41252 8.34137 36013 ft 391 kts 251°
2026-05-07 14:39 44.39471 8.26987 36013 ft 391 kts 250°
2026-05-07 14:39 44.37668 8.19800 36007 ft 391 kts 250°
2026-05-07 14:40 44.35857 8.12639 36003 ft 391 kts 250°
2026-05-07 14:40 44.34042 8.05482 36002 ft 390 kts 250°
2026-05-07 14:41 44.32229 7.98326 35989 ft 390 kts 250°
2026-05-07 14:41 44.30416 7.91214 35992 ft 390 kts 250°
2026-05-07 14:42 44.28602 7.84098 35994 ft 390 kts 250°
2026-05-07 14:42 44.26163 7.77356 35994 ft 391 kts 233°
2026-05-07 14:43 44.22262 7.72004 35994 ft 395 kts 224°
2026-05-07 14:43 44.18151 7.66966 36002 ft 395 kts 224°
2026-05-07 14:44 44.14092 7.61808 35983 ft 393 kts 230°
2026-05-07 14:44 44.10514 7.56068 35996 ft 392 kts 231°
2026-05-07 14:45 44.06932 7.50324 35999 ft 393 kts 231°
2026-05-07 14:45 44.03344 7.44598 36004 ft 392 kts 231°
2026-05-07 14:46 43.99757 7.38877 36010 ft 393 kts 231°
2026-05-07 14:46 43.96159 7.33154 36015 ft 393 kts 231°
2026-05-07 14:47 43.92565 7.27454 36012 ft 392 kts 230°
2026-05-07 14:47 43.88996 7.21800 36017 ft 392 kts 230°
2026-05-07 14:48 43.85396 7.16116 36018 ft 392 kts 230°
2026-05-07 14:48 43.81799 7.10446 36016 ft 391 kts 230°
2026-05-07 14:49 43.78205 7.04775 36011 ft 391 kts 230°
2026-05-07 14:49 43.75779 7.00962 36016 ft 390 kts 230°
2026-05-07 14:50 43.72805 6.96072 36013 ft 388 kts 237°
2026-05-07 14:50 43.70453 6.89433 36013 ft 388 kts 248°
2026-05-07 14:51 43.68427 6.82525 36016 ft 388 kts 247°
2026-05-07 14:51 43.66394 6.75615 36011 ft 387 kts 247°
2026-05-07 14:52 43.64353 6.68726 36001 ft 387 kts 247°
2026-05-07 14:52 43.62315 6.61869 35992 ft 387 kts 247°
2026-05-07 14:53 43.60274 6.55003 36001 ft 387 kts 247°
2026-05-07 14:53 43.58229 6.48140 35978 ft 386 kts 247°
2026-05-07 14:54 43.56175 6.41294 35985 ft 386 kts 246°
2026-05-07 14:54 43.54125 6.34456 35976 ft 386 kts 246°
2026-05-07 14:55 43.52077 6.27620 35971 ft 386 kts 246°
2026-05-07 14:55 43.50036 6.20834 35969 ft 385 kts 246°
2026-05-07 14:56 43.47968 6.14007 35971 ft 385 kts 246°
2026-05-07 14:56 43.46248 6.08350 35971 ft 385 kts 246°
2026-05-07 14:57 43.45214 6.04952 35869 ft 385 kts 246°
2026-05-07 14:57 43.44187 6.01608 35976 ft 373 kts 246°
2026-05-07 14:57 43.42147 5.94971 35953 ft 379 kts 246°
2026-05-07 14:58 43.40097 5.88311 35973 ft 381 kts 246°
2026-05-07 14:58 43.38050 5.81576 35973 ft 382 kts 246°
2026-05-07 14:59 43.37032 5.78199 36092 ft 383 kts 246°
2026-05-07 14:59 43.36007 5.74818 36405 ft 383 kts 246°
2026-05-07 14:59 43.34976 5.71430 36684 ft 383 kts 246°
2026-05-07 14:59 43.33942 5.68053 36921 ft 385 kts 246°
2026-05-07 15:00 43.31843 5.61253 36989 ft 386 kts 245°
2026-05-07 15:00 43.29753 5.54506 36986 ft 386 kts 246°
2026-05-07 15:01 43.27654 5.47734 36985 ft 384 kts 245°
2026-05-07 15:01 43.25550 5.40977 36984 ft 384 kts 245°
2026-05-07 15:02 43.23446 5.34246 36984 ft 384 kts 245°
2026-05-07 15:02 43.21345 5.27505 37005 ft 384 kts 245°
2026-05-07 15:03 43.19249 5.20807 37002 ft 384 kts 245°
2026-05-07 15:03 43.17139 5.14070 37002 ft 384 kts 245°
2026-05-07 15:04 43.15012 5.07329 36999 ft 384 kts 245°
2026-05-07 15:04 43.12885 5.00614 37000 ft 384 kts 245°
2026-05-07 15:05 43.10774 4.93942 37011 ft 384 kts 245°
2026-05-07 15:05 43.08650 4.87240 37012 ft 383 kts 245°
2026-05-07 15:06 43.06506 4.80579 37010 ft 381 kts 241°
2026-05-07 15:06 43.03292 4.74874 37007 ft 381 kts 223°
2026-05-07 15:07 42.99336 4.70115 36998 ft 381 kts 223°
2026-05-07 15:07 42.95362 4.65303 36997 ft 381 kts 223°
2026-05-07 15:08 42.91390 4.60510 36987 ft 381 kts 223°
2026-05-07 15:08 42.87424 4.55722 37011 ft 380 kts 223°
2026-05-07 15:09 42.83476 4.50979 37008 ft 380 kts 223°
2026-05-07 15:09 42.79502 4.46217 37004 ft 380 kts 223°
2026-05-07 15:10 42.75551 4.41478 36998 ft 380 kts 223°
2026-05-07 15:10 42.71577 4.36727 36997 ft 380 kts 223°
2026-05-07 15:11 42.67600 4.31990 36996 ft 380 kts 223°
2026-05-07 15:11 42.63620 4.27260 36996 ft 380 kts 223°
2026-05-07 15:12 42.59645 4.22528 36996 ft 380 kts 223°
2026-05-07 15:12 42.55667 4.17800 37009 ft 380 kts 222°
2026-05-07 15:13 42.51698 4.13103 36989 ft 380 kts 222°
2026-05-07 15:13 42.47713 4.08384 36998 ft 380 kts 222°
2026-05-07 15:14 42.43721 4.03664 37000 ft 380 kts 222°
2026-05-07 15:14 42.39758 3.98991 37000 ft 380 kts 222°
2026-05-07 15:15 42.35771 3.94305 37003 ft 379 kts 222°
2026-05-07 15:15 42.31780 3.89621 36984 ft 379 kts 222°
2026-05-07 15:16 42.27807 3.84967 36991 ft 379 kts 221°
2026-05-07 15:16 42.24323 3.79649 37013 ft 379 kts 233°
2026-05-07 15:17 42.21271 3.73826 37005 ft 380 kts 233°
2026-05-07 15:17 42.18199 3.67999 37002 ft 380 kts 233°
2026-05-07 15:18 42.15141 3.62215 36996 ft 381 kts 233°
2026-05-07 15:18 42.12063 3.56398 36989 ft 381 kts 233°
2026-05-07 15:19 42.08983 3.50583 36995 ft 381 kts 233°
2026-05-07 15:19 42.05900 3.44779 36998 ft 381 kts 233°
2026-05-07 15:20 42.02827 3.39012 36998 ft 381 kts 233°
2026-05-07 15:20 41.99730 3.33202 37000 ft 381 kts 233°
2026-05-07 15:21 41.96639 3.27408 37000 ft 381 kts 233°
2026-05-07 15:21 41.93536 3.21625 36980 ft 381 kts 232°
2026-05-07 15:22 41.90442 3.15865 36988 ft 381 kts 232°
2026-05-07 15:22 41.87331 3.10078 36996 ft 381 kts 232°
2026-05-07 15:23 41.84224 3.04303 37020 ft 381 kts 232°
2026-05-07 15:23 41.81129 2.98564 37012 ft 382 kts 232°
2026-05-07 15:24 41.78011 2.92791 37006 ft 382 kts 232°
2026-05-07 15:24 41.74893 2.87029 36999 ft 382 kts 232°
2026-05-07 15:25 41.71763 2.81261 36993 ft 382 kts 232°
2026-05-07 15:25 41.68636 2.75504 36991 ft 382 kts 232°
2026-05-07 15:26 41.65428 2.69826 36991 ft 382 kts 230°
2026-05-07 15:26 41.62155 2.64275 37006 ft 382 kts 230°
2026-05-07 15:27 41.58868 2.58685 36999 ft 382 kts 230°
2026-05-07 15:27 41.55591 2.53074 36995 ft 383 kts 230°
2026-05-07 15:28 41.52306 2.47463 36981 ft 383 kts 230°
2026-05-07 15:28 41.49046 2.41907 36985 ft 383 kts 230°
2026-05-07 15:29 41.45755 2.36303 36987 ft 383 kts 230°
2026-05-07 15:29 41.42477 2.30713 36987 ft 382 kts 230°
2026-05-07 15:30 41.39188 2.25129 37001 ft 382 kts 230°
2026-05-07 15:30 41.35916 2.19592 36994 ft 382 kts 230°
2026-05-07 15:31 41.32636 2.14026 36972 ft 383 kts 233°
2026-05-07 15:31 41.30402 2.07566 36968 ft 391 kts 252°
2026-05-07 15:32 41.29537 2.00367 36965 ft 395 kts 256°
2026-05-07 15:32 41.28697 1.93137 36966 ft 395 kts 256°
2026-05-07 15:33 41.27853 1.85958 36980 ft 395 kts 256°
2026-05-07 15:33 41.27006 1.78712 36973 ft 396 kts 256°
2026-05-07 15:34 41.26158 1.71469 36975 ft 396 kts 256°
2026-05-07 15:34 41.25311 1.64273 36972 ft 396 kts 256°
2026-05-07 15:35 41.24458 1.57029 36977 ft 396 kts 256°
2026-05-07 15:35 41.23601 1.49778 36989 ft 397 kts 256°
2026-05-07 15:36 41.22738 1.42558 36985 ft 397 kts 256°
2026-05-07 15:36 41.21867 1.35274 36984 ft 398 kts 256°
2026-05-07 15:37 41.20999 1.28050 36984 ft 398 kts 256°
2026-05-07 15:37 41.20110 1.20776 36984 ft 398 kts 256°
2026-05-07 15:38 41.19228 1.13559 37007 ft 398 kts 256°
2026-05-07 15:38 41.18338 1.06289 36999 ft 399 kts 256°
2026-05-07 15:39 41.17444 0.99012 36992 ft 399 kts 256°
2026-05-07 15:39 41.16538 0.91729 36982 ft 399 kts 256°
2026-05-07 15:40 41.15631 0.84485 36977 ft 400 kts 256°
2026-05-07 15:40 41.14715 0.77199 36977 ft 400 kts 256°
2026-05-07 15:41 41.13947 0.71150 36983 ft 400 kts 256°
2026-05-07 15:41 41.12869 0.62657 36961 ft 401 kts 256°
2026-05-07 15:42 41.12101 0.56570 36959 ft 402 kts 256°
2026-05-07 15:42 41.11025 0.48066 36963 ft 402 kts 256°
2026-05-07 15:43 41.10240 0.41939 36966 ft 402 kts 256°
2026-05-07 15:43 41.09301 0.34660 36976 ft 403 kts 257°
2026-05-07 15:44 41.08346 0.27331 36964 ft 403 kts 257°
2026-05-07 15:44 41.07385 0.19993 36963 ft 404 kts 256°
2026-05-07 15:45 41.06411 0.12646 36963 ft 404 kts 256°
2026-05-07 15:45 41.05443 0.05340 36959 ft 404 kts 256°
2026-05-07 15:46 41.03991 -0.05651 36956 ft 405 kts 257°
2026-05-07 15:47 41.03008 -0.13021 36948 ft 406 kts 257°
2026-05-07 15:47 41.02014 -0.20366 36950 ft 407 kts 257°
2026-05-07 15:48 41.00999 -0.27752 36946 ft 406 kts 254°
2026-05-07 15:48 40.99230 -0.34779 36958 ft 404 kts 248°
2026-05-07 15:49 40.97319 -0.41804 36955 ft 405 kts 248°
2026-05-07 15:49 40.95427 -0.48790 36962 ft 405 kts 248°
2026-05-07 15:50 40.93521 -0.55821 36959 ft 405 kts 248°
2026-05-07 15:50 40.91619 -0.62792 36967 ft 405 kts 248°
2026-05-07 15:51 40.89701 -0.69820 36958 ft 405 kts 248°
2026-05-07 15:51 40.87796 -0.76775 36999 ft 404 kts 248°
2026-05-07 15:52 40.85863 -0.83784 36988 ft 406 kts 249°
2026-05-07 15:52 40.83921 -0.90798 36982 ft 406 kts 249°
2026-05-07 15:53 40.81986 -0.97773 36973 ft 405 kts 249°
2026-05-07 15:53 40.80044 -1.04786 36970 ft 406 kts 249°
2026-05-07 15:54 40.78108 -1.11735 36979 ft 406 kts 249°
2026-05-07 15:54 40.76154 -1.18726 36989 ft 406 kts 249°
2026-05-07 15:55 40.74196 -1.25719 36993 ft 406 kts 249°
2026-05-07 15:55 40.72238 -1.32697 36992 ft 406 kts 249°
2026-05-07 15:56 40.70285 -1.39641 36984 ft 406 kts 249°
2026-05-07 15:56 40.68316 -1.46628 36981 ft 406 kts 249°
2026-05-07 15:57 40.66343 -1.53592 36972 ft 406 kts 249°
2026-05-07 15:57 40.64364 -1.60571 36962 ft 407 kts 249°
2026-05-07 15:58 40.62388 -1.67512 36966 ft 407 kts 249°
2026-05-07 15:58 40.60395 -1.74506 36964 ft 408 kts 249°
2026-05-07 15:59 40.58392 -1.81511 36966 ft 408 kts 249°
2026-05-07 15:59 40.56400 -1.88471 36961 ft 408 kts 249°
2026-05-07 16:00 40.54394 -1.95469 36974 ft 408 kts 249°
2026-05-07 16:00 40.52392 -2.02407 36970 ft 408 kts 249°
2026-05-07 16:01 40.50368 -2.09389 36969 ft 408 kts 249°
2026-05-07 16:01 40.48336 -2.16369 36964 ft 408 kts 249°
2026-05-07 16:02 40.46321 -2.23305 36964 ft 408 kts 249°
2026-05-07 16:02 40.44286 -2.30294 36954 ft 408 kts 250°
2026-05-07 16:03 40.42268 -2.37213 36963 ft 408 kts 250°
2026-05-07 16:03 40.40229 -2.44143 36965 ft 407 kts 250°
2026-05-07 16:04 40.38181 -2.51075 36959 ft 407 kts 250°
2026-05-07 16:04 40.36407 -2.58075 36962 ft 406 kts 255°
2026-05-07 16:05 40.34875 -2.65229 36965 ft 406 kts 255°
2026-05-07 16:05 40.33337 -2.72319 36952 ft 407 kts 255°
2026-05-07 16:06 40.31777 -2.79468 36950 ft 407 kts 255°
2026-05-07 16:06 40.30218 -2.86598 36951 ft 407 kts 255°
2026-05-07 16:07 40.28652 -2.93741 36945 ft 407 kts 255°
2026-05-07 16:07 40.27100 -3.00839 36947 ft 408 kts 255°
2026-05-07 16:08 40.25527 -3.07977 36933 ft 408 kts 255°
2026-05-07 16:08 40.23941 -3.15116 36945 ft 407 kts 255°
2026-05-07 16:09 40.22354 -3.22244 36946 ft 407 kts 255°
2026-05-07 16:09 40.20765 -3.29361 36952 ft 407 kts 255°
2026-05-07 16:10 40.19182 -3.36448 36932 ft 406 kts 256°
2026-05-07 16:10 40.17597 -3.43547 36927 ft 406 kts 256°
2026-05-07 16:11 40.16019 -3.50583 36937 ft 404 kts 256°
2026-05-07 16:11 40.14445 -3.57597 36938 ft 403 kts 256°
2026-05-07 16:12 40.12856 -3.64630 36937 ft 402 kts 256°
2026-05-07 16:12 40.11261 -3.71641 36931 ft 402 kts 256°
2026-05-07 16:13 40.09664 -3.78647 36918 ft 402 kts 256°
2026-05-07 16:13 40.08069 -3.85605 36898 ft 402 kts 257°
2026-05-07 16:14 40.06463 -3.92602 36903 ft 401 kts 257°
2026-05-07 16:14 40.04865 -3.99586 36907 ft 401 kts 257°
2026-05-07 16:15 40.03263 -4.06533 36909 ft 401 kts 256°
2026-05-07 16:15 40.01649 -4.13504 36904 ft 401 kts 256°
2026-05-07 16:16 40.00030 -4.20495 36905 ft 401 kts 256°
2026-05-07 16:16 39.98416 -4.27430 36899 ft 401 kts 256°
2026-05-07 16:17 39.96789 -4.34387 36899 ft 401 kts 257°
2026-05-07 16:17 39.95318 -4.41347 36900 ft 400 kts 258°
2026-05-07 16:18 39.93943 -4.48375 36879 ft 400 kts 259°
2026-05-07 16:18 39.92551 -4.55387 36898 ft 399 kts 259°
2026-05-07 16:19 39.91131 -4.62335 36907 ft 396 kts 258°
2026-05-07 16:19 39.89706 -4.69255 36913 ft 393 kts 259°
2026-05-07 16:20 39.88295 -4.76131 36904 ft 391 kts 259°
2026-05-07 16:20 39.86889 -4.82971 36900 ft 390 kts 259°
2026-05-07 16:21 39.85488 -4.89742 36895 ft 389 kts 258°
2026-05-07 16:21 39.84072 -4.96548 36891 ft 389 kts 258°
2026-05-07 16:22 39.82657 -5.03324 36893 ft 386 kts 258°
2026-05-07 16:22 39.81257 -5.10031 36893 ft 385 kts 258°
2026-05-07 16:23 39.79850 -5.16748 36890 ft 384 kts 258°
2026-05-07 16:23 39.78440 -5.23448 36887 ft 383 kts 258°
2026-05-07 16:24 39.77031 -5.30093 36886 ft 383 kts 258°
2026-05-07 16:24 39.75617 -5.36787 36868 ft 382 kts 258°
2026-05-07 16:25 39.74208 -5.43452 36868 ft 382 kts 258°
2026-05-07 16:25 39.72795 -5.50080 36861 ft 383 kts 257°
2026-05-07 16:26 39.71368 -5.56743 36867 ft 382 kts 257°
2026-05-07 16:26 39.69949 -5.63370 36868 ft 382 kts 257°
2026-05-07 16:27 39.68520 -5.70024 36863 ft 382 kts 257°
2026-05-07 16:27 39.67086 -5.76692 36849 ft 383 kts 257°
2026-05-07 16:28 39.65650 -5.83316 36810 ft 383 kts 257°
2026-05-07 16:28 39.64197 -5.90002 36820 ft 384 kts 257°
2026-05-07 16:29 39.62757 -5.96635 36825 ft 384 kts 257°
2026-05-07 16:29 39.61302 -6.03316 36833 ft 385 kts 257°
2026-05-07 16:30 39.60084 -6.08873 36828 ft 385 kts 257°
2026-05-07 16:30 39.58615 -6.15564 36831 ft 385 kts 257°
2026-05-07 16:31 39.57153 -6.22206 36833 ft 385 kts 257°
2026-05-07 16:31 39.55679 -6.28893 36843 ft 385 kts 257°
2026-05-07 16:32 39.54198 -6.35573 36845 ft 385 kts 257°
2026-05-07 16:32 39.52717 -6.42206 36837 ft 385 kts 255°
2026-05-07 16:33 39.50501 -6.48588 36842 ft 389 kts 248°
2026-05-07 16:33 39.48076 -6.54868 36843 ft 389 kts 247°
2026-05-07 16:34 39.45648 -6.61090 36844 ft 389 kts 247°
2026-05-07 16:34 39.43194 -6.67366 36842 ft 389 kts 247°
2026-05-07 16:35 39.40741 -6.73636 36501 ft 396 kts 247°
2026-05-07 16:35 39.39492 -6.76820 36243 ft 395 kts 247°
2026-05-07 16:35 39.38249 -6.79988 35980 ft 392 kts 247°
2026-05-07 16:35 39.37034 -6.83085 35702 ft 390 kts 247°
2026-05-07 16:36 39.35810 -6.86199 35446 ft 387 kts 247°
2026-05-07 16:36 39.34596 -6.89286 35207 ft 381 kts 247°
2026-05-07 16:36 39.33394 -6.92331 34807 ft 377 kts 247°
2026-05-07 16:36 39.32222 -6.95297 34393 ft 374 kts 247°
2026-05-07 16:37 39.31046 -6.98277 33978 ft 370 kts 247°
2026-05-07 16:37 39.29883 -7.01227 33549 ft 367 kts 248°
2026-05-07 16:37 39.28729 -7.04149 33136 ft 363 kts 248°
2026-05-07 16:37 39.27591 -7.07036 32735 ft 358 kts 247°
2026-05-07 16:38 39.26464 -7.09892 32324 ft 354 kts 247°
2026-05-07 16:38 39.25344 -7.12721 31928 ft 351 kts 247°
2026-05-07 16:38 39.24248 -7.15480 31538 ft 348 kts 247°
2026-05-07 16:38 39.23149 -7.18248 31154 ft 345 kts 247°
2026-05-07 16:39 39.22059 -7.20994 30770 ft 342 kts 247°
2026-05-07 16:39 39.20974 -7.23725 30390 ft 340 kts 246°
2026-05-07 16:39 39.19897 -7.26435 30022 ft 338 kts 246°
2026-05-07 16:39 39.18822 -7.29137 29622 ft 337 kts 246°
2026-05-07 16:40 39.17771 -7.31770 29264 ft 333 kts 246°
2026-05-07 16:40 39.16709 -7.34425 28912 ft 329 kts 246°
2026-05-07 16:40 39.15669 -7.37034 28574 ft 326 kts 246°
2026-05-07 16:40 39.14639 -7.39619 28243 ft 323 kts 246°
2026-05-07 16:41 39.13614 -7.42182 27911 ft 322 kts 246°
2026-05-07 16:41 39.12587 -7.44749 27579 ft 321 kts 246°
2026-05-07 16:41 39.11568 -7.47298 27248 ft 320 kts 245°
2026-05-07 16:41 39.10549 -7.49843 26910 ft 319 kts 245°
2026-05-07 16:42 39.09533 -7.52379 26581 ft 318 kts 245°
2026-05-07 16:42 39.08519 -7.54899 26246 ft 317 kts 245°
2026-05-07 16:42 39.07517 -7.57390 25924 ft 316 kts 245°
2026-05-07 16:42 39.06507 -7.59902 25580 ft 315 kts 245°
2026-05-07 16:43 39.05502 -7.62396 25245 ft 313 kts 243°
2026-05-07 16:43 39.04501 -7.64873 24902 ft 311 kts 243°
2026-05-07 16:43 39.03519 -7.67355 24596 ft 319 kts 244°
2026-05-07 16:43 39.02518 -7.69976 24283 ft 331 kts 244°
2026-05-07 16:44 39.01508 -7.72655 23961 ft 333 kts 244°
2026-05-07 16:44 39.00507 -7.75304 23642 ft 333 kts 244°
2026-05-07 16:44 38.99493 -7.77987 23299 ft 332 kts 244°
2026-05-07 16:44 38.98479 -7.80656 22949 ft 331 kts 244°
2026-05-07 16:45 38.97468 -7.83311 22635 ft 330 kts 244°
2026-05-07 16:45 38.96459 -7.85958 22322 ft 329 kts 244°
2026-05-07 16:45 38.95451 -7.88599 22002 ft 328 kts 244°
2026-05-07 16:45 38.94443 -7.91226 21689 ft 327 kts 244°
2026-05-07 16:46 38.93431 -7.93846 21373 ft 326 kts 244°
2026-05-07 16:46 38.92421 -7.96456 21054 ft 325 kts 244°
2026-05-07 16:46 38.91419 -7.99063 20742 ft 325 kts 244°
2026-05-07 16:46 38.90382 -8.01585 20431 ft 321 kts 237°
2026-05-07 16:47 38.89029 -8.03844 20117 ft 319 kts 231°
2026-05-07 16:47 38.87614 -8.06029 19822 ft 318 kts 231°
2026-05-07 16:47 38.86201 -8.08210 19516 ft 317 kts 231°
2026-05-07 16:47 38.84790 -8.10390 19210 ft 316 kts 231°
2026-05-07 16:48 38.83385 -8.12563 18908 ft 315 kts 231°
2026-05-07 16:48 38.81986 -8.14722 18602 ft 313 kts 231°
2026-05-07 16:48 38.80625 -8.16841 18313 ft 311 kts 234°
2026-05-07 16:48 38.79629 -8.19287 18071 ft 310 kts 251°
2026-05-07 16:49 38.78940 -8.21925 17808 ft 310 kts 251°
2026-05-07 16:49 38.78264 -8.24549 17546 ft 309 kts 251°
2026-05-07 16:49 38.77595 -8.27157 17277 ft 307 kts 251°
2026-05-07 16:49 38.76936 -8.29726 17018 ft 306 kts 251°
2026-05-07 16:50 38.76271 -8.32319 16758 ft 306 kts 251°
2026-05-07 16:50 38.75607 -8.34910 16509 ft 305 kts 250°
2026-05-07 16:50 38.74949 -8.37475 16263 ft 300 kts 250°
2026-05-07 16:50 38.74295 -8.40015 15928 ft 298 kts 250°
2026-05-07 16:51 38.73650 -8.42516 15633 ft 295 kts 250°
2026-05-07 16:51 38.73008 -8.45010 15281 ft 294 kts 250°
2026-05-07 16:51 38.72365 -8.47503 14912 ft 294 kts 249°
2026-05-07 16:51 38.71727 -8.49956 14572 ft 294 kts 249°
2026-05-07 16:52 38.71079 -8.52441 14212 ft 294 kts 249°
2026-05-07 16:52 38.70433 -8.54932 13842 ft 294 kts 249°
2026-05-07 16:52 38.69787 -8.57419 13461 ft 294 kts 249°
2026-05-07 16:52 38.69144 -8.59902 13090 ft 294 kts 250°
2026-05-07 16:53 38.68502 -8.62385 12728 ft 293 kts 249°
2026-05-07 16:53 38.67861 -8.64856 12371 ft 292 kts 248°
2026-05-07 16:53 38.67220 -8.67316 12009 ft 291 kts 248°
2026-05-07 16:53 38.66580 -8.69771 11647 ft 290 kts 248°
2026-05-07 16:54 38.65940 -8.72218 11282 ft 290 kts 249°
2026-05-07 16:54 38.65301 -8.74664 10921 ft 289 kts 248°
2026-05-07 16:54 38.64664 -8.77104 10561 ft 289 kts 249°
2026-05-07 16:54 38.64031 -8.79535 10279 ft 286 kts 248°
2026-05-07 16:55 38.63400 -8.81948 9905 ft 286 kts 248°
2026-05-07 16:55 38.62780 -8.84309 9551 ft 283 kts 248°
2026-05-07 16:55 38.62159 -8.86677 9131 ft 280 kts 248°
2026-05-07 16:55 38.61539 -8.89037 8757 ft 279 kts 248°
2026-05-07 16:56 38.60923 -8.91385 8405 ft 278 kts 248°
2026-05-07 16:56 38.60306 -8.93724 8050 ft 277 kts 248°
2026-05-07 16:56 38.59079 -8.98379 7354 ft 276 kts 248°
2026-05-07 16:57 38.58465 -9.00694 7007 ft 275 kts 248°
2026-05-07 16:57 38.57854 -9.03000 6691 ft 273 kts 247°
2026-05-07 16:57 38.57245 -9.05300 6384 ft 272 kts 247°
2026-05-07 16:57 38.56639 -9.07583 6024 ft 271 kts 248°
2026-05-07 16:58 38.56047 -9.09826 5895 ft 262 kts 249°
2026-05-07 16:58 38.55476 -9.11989 5761 ft 252 kts 250°
2026-05-07 16:58 38.54939 -9.14035 5634 ft 234 kts 252°
2026-05-07 16:58 38.54780 -9.16097 5307 ft 236 kts 276°
2026-05-07 16:59 38.55358 -9.18054 4998 ft 238 kts 302°
2026-05-07 16:59 38.56410 -9.19645 4684 ft 230 kts 309°
2026-05-07 16:59 38.57446 -9.21130 4395 ft 215 kts 309°
2026-05-07 16:59 38.58441 -9.22438 4081 ft 199 kts 322°
2026-05-07 17:00 38.59699 -9.23030 3893 ft 194 kts 351°
2026-05-07 17:00 38.61000 -9.22738 3660 ft 187 kts 19°
2026-05-07 17:00 38.62168 -9.22112 3426 ft 177 kts 18°
2026-05-07 17:00 38.63287 -9.21513 3197 ft 172 kts 19°
2026-05-07 17:01 38.64387 -9.20927 2959 ft 171 kts 18°
2026-05-07 17:01 38.65466 -9.20353 2743 ft 170 kts 17°
2026-05-07 17:01 38.66548 -9.19776 2523 ft 168 kts 18°
2026-05-07 17:01 38.67621 -9.19205 2285 ft 166 kts 17°
2026-05-07 17:02 38.68690 -9.18635 2057 ft 166 kts 17°
2026-05-07 17:02 38.69754 -9.18068 1835 ft 164 kts 17°
2026-05-07 17:02 38.70795 -9.17512 1605 ft 155 kts 18°
2026-05-07 17:02 38.71745 -9.17003 1405 ft 144 kts 19°
2026-05-07 17:03 38.72644 -9.16525 1193 ft 138 kts 15°
2026-05-07 17:03 38.73517 -9.16059 985 ft 136 kts 17°
2026-05-07 17:03 38.74400 -9.15590 833 ft 140 kts 16°
2026-05-07 17:03 38.75303 -9.15105 671 ft 140 kts 17°
2026-05-07 17:04 38.76195 -9.14627 469 ft 138 kts 17°
2026-05-07 17:04 38.77054 -9.14167 353 ft 124 kts 19°
2026-05-07 17:04 38.77682 -9.13834 367 ft 73 kts 22°
2026-05-07 17:04 38.77992 -9.13667 366 ft 25 kts 24°
2026-05-07 17:05 38.78153 -9.13580 368 ft 25 kts 25°
2026-05-07 17:05 38.78301 -9.13447 364 ft 28 kts 44°
2026-05-07 17:05 38.78377 -9.13327 362 ft 9 kts 73°
2026-05-07 17:05 38.78338 -9.13261 359 ft 13 kts 178°
2026-05-07 17:06 38.78250 -9.13301 360 ft 11 kts 203°
2026-05-07 17:06 38.78192 -9.13333 358 ft 10 kts 203°
2026-05-07 17:06 38.78157 -9.13351 362 ft 4 kts 200°
2026-05-07 17:06 38.78119 -9.13370 362 ft 7 kts 202°
2026-05-07 17:07 38.78094 -9.13383 361 ft 0 kts 202°
2026-05-07 17:07 38.78084 -9.13389 359 ft 4 kts 203°
2026-05-07 17:07 38.78037 -9.13414 363 ft 11 kts 202°
2026-05-07 17:07 38.77945 -9.13463 358 ft 17 kts 202°
2026-05-07 17:08 38.77818 -9.13530 355 ft 22 kts 202°
2026-05-07 17:08 38.77693 -9.13596 360 ft 13 kts 196°
2026-05-07 17:08 38.77582 -9.13579 352 ft 20 kts 167°
2026-05-07 17:08 38.77427 -9.13537 348 ft 18 kts 168°
2026-05-07 17:09 38.77352 -9.13518 349 ft 17 kts 168°
2026-05-07 17:09 38.77217 -9.13482 346 ft 21 kts 168°
2026-05-07 17:09 38.77144 -9.13462 346 ft 11 kts 168°
2026-05-07 17:09 38.77060 -9.13439 345 ft 14 kts 168°
2026-05-07 17:10 38.76953 -9.13410 347 ft 17 kts 168°
2026-05-07 17:10 38.76873 -9.13388 346 ft 6 kts 168°
2026-05-07 17:10 38.76866 -9.13387 347 ft 0 kts 168°
2026-05-07 17:11 38.76858 -9.13385 343 ft 2 kts 168°
2026-05-07 17:11 38.76837 -9.13379 348 ft 4 kts 168°
2026-05-07 17:12 38.76805 -9.13370 343 ft 5 kts 168°
2026-05-07 17:12 38.76765 -9.13368 343 ft 6 kts 199°
2026-05-07 17:12 38.76728 -9.13399 355 ft 7 kts 213°
2026-05-07 17:12 38.76681 -9.13439 345 ft 9 kts 214°
2026-05-07 17:13 38.76648 -9.13520 350 ft 12 kts 259°
2026-05-07 17:13 38.76635 -9.13600 345 ft 15 kts 258°
2026-05-07 17:13 38.76613 -9.13739 353 ft 17 kts 259°
2026-05-07 17:13 38.76589 -9.13890 346 ft 16 kts 259°
2026-05-07 17:14 38.76561 -9.13935 349 ft 4 kts 193°
2026-05-07 17:14 38.76542 -9.13933 347 ft 2 kts 172°
2026-05-07 17:14 38.76521 -9.13920 350 ft 5 kts 140°
2026-05-07 17:14 38.76488 -9.13889 354 ft 7 kts 167°
2026-05-07 17:15 38.76452 -9.13880 348 ft 2 kts 170°
2026-05-07 17:15 38.76448 -9.13879 348 ft 0 kts 169°
2026-05-07 17:20 38.76448 -9.13880 349 ft 0 kts 168°